STARLINK-31685, 59578

Orbit data source: Space-Track

STARLINK-31685, 59578 is a payload satellite owned by SpaceX/Seattle (US) in LEO that was launched on Tue, 23 Apr 2024 UTC via an FALCON 9 launch vehicle from the Air Force Eastern Test Range (AFETR). Payload-class satellites include a variety of spacecraft equipped with specific instruments for various scientific and technological missions. These include communications satellites like Starlink; space stations such as the ISS; scientific satellites like the Hubble; Earth observation satellites from companies like Planet Labs, Umbra, and HawkEye 360; GPS; miniature CubeSats for education and research; and military/defense satellites.

Loading next visibility...
Identifier
59578, 2024-076Q
Orbit
LEO
Country
Flag of USUS
Related business
Manufacturer
SpaceX/Seattle
Mission
Operational Commercial Communications
Bus & Motor
STARLINK V2M, Unknown motor
Mass
730 kg wet, ~700 kg dry
Launch date (UTC)
2024-04-23 (2 years ago)
Launch vehicle
FALCON 9
Launch site
Air Force Eastern Test Range (AFETR)
Object type
Payload
Rocket body
Debris
Shape & HBR
Box + 2 Pan, 17.7 m
Radar Cross Section
33.884 m², Large (>1 m²)

Expand to show TLE details & history
Last TLE update: 22 hours ago

TLE from 22 hours ago
0 STARLINK-31685
1 59578U 24076Q   25312.50761056  .00002275  00000-0  92151-4 0  9994
2 59578  43.0043 333.0029 0000909 265.7136  94.3611 15.27579017 87977
Epoch: 2025-11-08T12:10Z
TLE epoch observation values (Epoch: 2025-11-08T12:10:57.552Z)
Latitude
-0.00007°
Longitude
102.3268°
Altitude
482.875 km
Speed
7.626 km/s
True Right ascension
22h 12m 00s
True Declination
0° 00' 00"
Sunlit
Object was in daylight at epoch
Visualization orbit readout
Latitude
Unknown
Longitude
Unknown
Altitude
Unknown
Speed
Unknown
Apparent Right ascension
Unknown
Apparent Declination
Unknown
Sunlit
N/A
Visualization observer readout
Local Sidereal Time
06:11:41
Azimuth
Unknown
Elevation
Unknown
Doppler factor
Unknown
Orbital elements
Apogee altitude
485.62 km
Perigee altitude
484.373 km
Semi-major axis
6,863.133 km
Eccentricity
0.00009
Inclination
43.0043°
RAAN
333.0029°
Arg. of periapsis
265.7136°
True anomaly
94.37149°
Mean anomaly
94.3611°
Eccentric anomaly
94.36629°
Mean motion
3.81733 °/min
Orbital period
94.31 mins
BSTAR
0.000092151
Loading maneuver chart data...
Computing Atmospheric mass density...
Loading historical data...
Loading historical data...
Loading historical data...
Loading historical data...
Loading historical data...
Loading historical data...
Loading historical data...

Documentation

Showing up to 5 results
|